ラッセル第4彗星

94P/Russell 4 (2023)

English version
Home page
Updated on June 15, 2021

---------------------------------------------------------------------

・ プロフィール

・ 軌道要素

Epoch 2023 May 16.0 TT = JDT 2460080.5                                          
T 2023 May 21.07179 TT                                  Rudenko                 
q   2.2270704            (2000.0)            P               Q                  
n   0.14988159     Peri.   92.41714     -0.95218403     -0.28805825             
a   3.5099737      Node    70.85501     +0.21948773     -0.87677454             
e   0.3655023      Incl.    6.18764     +0.21253402     -0.38508291             
P   6.58                                                                        
From 1522 observations 1984 Mar. 2-2020 Oct. 18, mean residual 1".1.            

・ 星図

・ 光度変化

        H = 14.5  G = 0.15             [    ,-210]  (              〜2022年10月23日)
        m1 = 3.0 + 5 logΔ + 35 log r  [-210, 155]  (2022年10月23日〜2023年10月23日)
        H = 14.5  G = 0.15             [ 155,    ]  (2023年10月23日〜              )

---------------------------------------------------------------------

軌道要素はM.P.E.C. 2020-W26に掲載されたものです。
星図はステラナビゲータ Ver.10 (アストロアーツ) で作成したものです。
光度グラフはComet for Windowsで作成したものです。

---------------------------------------------------------------------

Copyright(C) Seiichi Yoshida (comet@aerith.net). All rights reserved.